[[{"header":{"parameterUnit":"m.s-1","parameterCategory":1,"la1":30.2992,"la2":30.254,"lo1":-89.0895,"lo2":-89.0443,"dy":0.0025,"dx":0.0025,"nx":19,"ny":19,"refTime":"2026-05-21T03:00:00:Z","depth":0,"parameterNumber":2,"parameterNumberName":"U-component_of_WINDS"},"data":[0,0,0,-1.2467,-1.2466,-1.24,-1.2399,-1.2319,-1.2318,0,0,0,0,0,0,0,0,0,0,0,-1.249,-1.2489,-1.2467,-1.2466,-1.24,-1.2399,-1.2319,-1.2318,0,0,0,0,0,0,0,0,0,0,0,-1.249,-1.2489,-1.2489,-1.2466,-1.24,-1.2399,-1.2319,-1.2367,0,0,0,0,0,0,0,0,0,0,-1.2431,-1.2454,-1.2489,-1.2489,-1.2465,-1.24,-1.2399,-1.237,-1.2364,-1.2351,0,-1.2339,0,-1.2328,-1.2313,-1.2313,0,0,0,-1.2463,-1.2459,-1.2439,-1.2489,-1.2465,-1.24,-1.2429,-1.2367,-1.2361,-1.2344,-1.2338,-1.2335,-1.2326,-1.2312,-1.2312,-1.2242,-1.2242,0,0,-1.2467,-1.2479,-1.2443,-1.2435,-1.2446,-1.2431,-1.2427,-1.2363,-1.2358,-1.2338,-1.2333,-1.2325,-1.2312,-1.2311,-1.2242,-1.2242,0,0,0,-1.2479,-1.2482,-1.2463,-1.2438,-1.2426,-1.2429,-1.2424,-1.236,-1.2353,-1.2332,-1.2324,-1.2312,-1.2311,-1.2243,-1.2242,-1.2243,0,0,0,-1.2481,-1.2489,-1.2465,-1.2471,-1.2427,-1.2392,-1.2423,-1.2358,-1.235,-1.2324,-1.2311,-1.231,-1.2243,-1.2243,-1.2244,-1.2241,0,0,0,-1.2493,-1.249,-1.2481,-1.2472,-1.2444,-1.2393,-1.2382,-1.2356,-1.2345,-1.2313,-1.231,-1.2243,-1.2243,-1.2244,-1.2242,-1.2227,0,0,0,-1.2509,-1.2482,-1.2482,-1.2449,-1.2445,-1.2395,-1.2383,-1.2345,-1.2317,-1.2311,-1.2243,-1.2242,-1.2244,-1.2242,-1.2227,-1.2216,-1.2212,0,0,-1.2482,-1.2479,-1.2459,-1.2457,-1.241,-1.2404,-1.2357,-1.232,-1.2306,-1.2264,-1.2262,-1.2243,-1.2242,-1.2227,-1.2189,-1.2186,0,0,0,-1.2455,-1.244,-1.2425,-1.24,-1.2372,-1.2348,-1.2317,-1.2304,-1.2268,-1.2287,-1.2234,-1.2232,-1.2223,-1.2217,-1.2215,-1.2206,-1.224,-1.224,-1.224,-1.2433,-1.2417,-1.2383,-1.236,-1.2336,-1.2305,-1.2284,-1.2261,-1.2251,-1.2239,-1.2226,-1.2205,-1.2199,-1.2197,-1.2188,-1.2219,-1.2219,-1.2219,-1.2219,-1.2392,-1.2369,-1.2359,-1.2322,-1.2306,-1.2275,-1.2245,-1.224,-1.2209,-1.2213,-1.2204,-1.2209,-1.2194,-1.2186,-1.2219,-1.2219,-1.2219,-1.2219,-1.2219,-1.2375,-1.2361,-1.2346,-1.2309,-1.2282,-1.226,-1.2231,-1.2217,-1.2204,-1.2196,-1.2181,-1.2181,-1.2179,-1.219,-1.219,-1.219,-1.219,-1.219,-1.2189,-1.2363,-1.2347,-1.2324,-1.2293,-1.2276,-1.2251,-1.2222,-1.2205,-1.2182,-1.2174,-1.2174,-1.2166,-1.2196,-1.2204,-1.2188,-1.2188,-1.2189,-1.2189,-1.2189,-1.2327,-1.2333,-1.2298,-1.2281,-1.2245,-1.222,-1.2203,-1.2169,-1.2153,-1.214,-1.2134,-1.2159,-1.2155,-1.2157,-1.2163,-1.2138,-1.2138,-1.2138,-1.2138,-1.2312,-1.231,-1.2272,-1.2245,-1.2218,-1.22,-1.2162,-1.214,-1.2118,-1.2107,-1.2109,-1.2116,-1.2119,-1.2113,-1.2116,-1.2121,-1.2086,-1.2086,-1.2086,-1.2289,-1.2283,-1.2253,-1.2232,-1.2203,-1.2179,-1.2143,-1.2113,-1.2089,-1.2084,-1.2098,-1.21,-1.2112,-1.2117,-1.211,-1.2114,-1.2124,0,0]},{"header":{"parameterUnit":"m.s-1","parameterCategory":1,"la1":30.2992,"la2":30.254,"lo1":-89.0895,"lo2":-89.0443,"dy":0.0025,"dx":0.0025,"nx":19,"ny":19,"refTime":"2026-05-21T03:00:00:Z","depth":0,"parameterNumber":3,"parameterNumberName":"V-component_of_WINDS"},"data":[0,0,0,4.1237,4.1239,4.1356,4.1357,4.1505,4.1507,0,0,0,0,0,0,0,0,0,0,0,4.1199,4.12,4.1236,4.1239,4.1356,4.1357,4.1505,4.1507,0,0,0,0,0,0,0,0,0,0,0,4.1199,4.12,4.1201,4.124,4.1356,4.1357,4.1505,4.1417,0,0,0,0,0,0,0,0,0,0,4.1304,4.1266,4.1199,4.1201,4.124,4.1356,4.1357,4.1413,4.1423,4.1451,0,4.1474,0,4.1493,4.1516,4.1517,0,0,0,4.1242,4.1258,4.1292,4.1201,4.1241,4.1356,4.1304,4.1419,4.143,4.1464,4.1476,4.1482,4.1495,4.1517,4.1518,4.1674,4.1674,0,0,4.1235,4.1219,4.1284,4.1299,4.1279,4.13,4.1308,4.1425,4.1438,4.1477,4.1485,4.1498,4.1518,4.1519,4.1673,4.1674,0,0,0,4.1215,4.1214,4.1246,4.1293,4.1314,4.1304,4.1312,4.1433,4.1444,4.1487,4.1499,4.1519,4.1521,4.1672,4.1673,4.169,0,0,0,4.1211,4.1202,4.1243,4.1234,4.1312,4.1374,4.1317,4.1436,4.145,4.1499,4.1519,4.1522,4.1672,4.1673,4.1688,4.1701,0,0,0,4.1192,4.12,4.1216,4.1233,4.1282,4.1373,4.1391,4.144,4.1458,4.1517,4.1523,4.1671,4.1673,4.1686,4.1698,4.1741,0,0,0,4.1168,4.1227,4.1216,4.1287,4.1281,4.1381,4.1391,4.1466,4.1518,4.152,4.1672,4.1673,4.1686,4.1697,4.1739,4.1775,4.1788,0,0,4.1233,4.1234,4.1278,4.1271,4.137,4.1365,4.1466,4.1529,4.155,4.1632,4.1636,4.1689,4.1698,4.174,4.186,4.187,0,0,0,4.1293,4.1325,4.1354,4.1404,4.1454,4.15,4.155,4.1575,4.1645,4.1588,4.1714,4.172,4.1746,4.1764,4.1773,4.1798,4.168,4.168,4.168,4.1363,4.1387,4.1463,4.1502,4.1551,4.1604,4.1647,4.1689,4.1697,4.1727,4.1752,4.1822,4.1843,4.1849,4.1875,4.1771,4.1771,4.1771,4.1771,4.1464,4.1515,4.1527,4.1605,4.1632,4.1698,4.1753,4.1758,4.1825,4.1803,4.1827,4.1804,4.1859,4.1884,4.1772,4.1772,4.1772,4.1772,4.1772,4.1515,4.1544,4.1573,4.1651,4.1709,4.1747,4.1813,4.1834,4.1854,4.1877,4.1909,4.1909,4.1915,4.189,4.189,4.1891,4.1891,4.1891,4.1891,4.1558,4.159,4.1642,4.1704,4.1741,4.1793,4.185,4.1888,4.1936,4.1946,4.1947,4.1956,4.1859,4.1836,4.1895,4.1894,4.1894,4.1894,4.1893,4.1657,4.1639,4.1719,4.1757,4.1834,4.1893,4.1919,4.1996,4.203,4.2063,4.2068,4.1991,4.1994,4.1987,4.1969,4.2059,4.2059,4.2059,4.2059,4.1702,4.1706,4.1796,4.1855,4.1916,4.1949,4.2045,4.2091,4.2136,4.216,4.215,4.2126,4.2118,4.2126,4.2117,4.21,4.2222,4.2222,4.2222,4.1767,4.1778,4.1853,4.1896,4.1959,4.2014,4.2105,4.2177,4.2224,4.2229,4.2181,4.2174,4.2136,4.2122,4.2127,4.2112,4.2082,0,0]}]]